When you browse on this site, cookies collect data to enhance your experience and personalize the content and advertising you see.
Visit our Privacy Policy to learn more. By continuing to use the site, you agree to this use of cookies and data.
  • In Hungary
  • List of Countries
  • For 7 days
  • Water Temperature
  • Weather Map
  • News
  • Weather Widgets
  • user-avatar
    Login

    Hourly Weather Tyuhtovo

    Today, 22 January, Wednesday

    Time Temperature Precipitation Wind Pressure Humidity
    00:00 -3°C° 0 mm 6 mps 737 mmHg 78%
    01:00 -3°C° 0 mm 6 mps 737 mmHg 80%
    02:00 -2°C° 0 mm 5 mps 737 mmHg 84%
    03:00 -4°C° 0 mm 5 mps 736 mmHg 84%
    04:00 -4°C° 0 mm 5 mps 735 mmHg 85%
    05:00 -4°C° 0 mm 5 mps 734 mmHg 85%
    06:00 -4°C° 0 mm 5 mps 734 mmHg 85%
    07:00 -4°C° 0 mm 5 mps 734 mmHg 86%
    08:00 -3°C° 0 mm 4 mps 733 mmHg 86%
    09:00 -2°C° 0.3 mm 5 mps 733 mmHg 82%
    10:00 -2°C° 0.3 mm 5 mps 733 mmHg 79%
    11:00 -2°C° 0.3 mm 5 mps 733 mmHg 75%
    12:00 -2°C° 0.1 mm 5 mps 733 mmHg 75%
    13:00 -2°C° 0.1 mm 4 mps 733 mmHg 74%
    14:00 -3°C° 0.1 mm 4 mps 734 mmHg 73%
    15:00 -3°C° 0 mm 4 mps 734 mmHg 77%
    16:00 -4°C° 0 mm 4 mps 734 mmHg 80%
    17:00 -4°C° 0 mm 4 mps 735 mmHg 84%
    18:00 -4°C° 0 mm 4 mps 735 mmHg 83%
    19:00 -4°C° 0 mm 4 mps 736 mmHg 83%
    20:00 -4°C° 0 mm 4 mps 737 mmHg 82%
    21:00 -5°C° 0.1 mm 4 mps 737 mmHg 82%
    22:00 -6°C° 0.1 mm 5 mps 737 mmHg 81%
    23:00 -6°C° 0.1 mm 5 mps 738 mmHg 81%

    Tomorrow, 23 January, Thursday

    Time Temperature Precipitation Wind Pressure Humidity
    00:00 -8°C° 0.1 mm 6 mps 739 mmHg 79%
    01:00 -8°C° 0.1 mm 6 mps 740 mmHg 78%
    02:00 -9°C° 0.1 mm 6 mps 741 mmHg 76%
    03:00 -8°C° 0 mm 5 mps 741 mmHg 75%
    04:00 -10°C° 0 mm 5 mps 741 mmHg 73%
    05:00 -10°C° 0 mm 5 mps 742 mmHg 72%
    06:00 -10°C° 0 mm 5 mps 742 mmHg 69%
    07:00 -10°C° 0 mm 5 mps 743 mmHg 66%
    08:00 -10°C° 0 mm 5 mps 743 mmHg 63%
    09:00 -10°C° 0 mm 5 mps 743 mmHg 63%
    10:00 -8°C° 0 mm 4 mps 743 mmHg 63%
    11:00 -7°C° 0 mm 4 mps 743 mmHg 63%
    12:00 -7°C° 0.2 mm 5 mps 744 mmHg 66%
    13:00 -7°C° 0.2 mm 5 mps 744 mmHg 68%
    14:00 -7°C° 0.2 mm 5 mps 744 mmHg 71%
    15:00 -8°C° 0 mm 5 mps 745 mmHg 70%
    16:00 -9°C° 0 mm 4 mps 745 mmHg 69%
    17:00 -9°C° 0 mm 4 mps 745 mmHg 68%
    18:00 -9°C° 0 mm 3 mps 746 mmHg 70%
    19:00 -9°C° 0 mm 3 mps 746 mmHg 71%
    20:00 -8°C° 0 mm 2 mps 747 mmHg 72%
    21:00 -8°C° 0 mm 2 mps 746 mmHg 73%
    22:00 -8°C° 0 mm 2 mps 746 mmHg 74%
    23:00 -8°C° 0 mm 2 mps 746 mmHg 75%

    Day after tomorrow, 24 January, Friday

    Time Temperature Precipitation Wind Pressure Humidity
    00:00 -8°C° 0 mm 2 mps 746 mmHg 74%
    01:00 -7°C° 0 mm 2 mps 745 mmHg 74%
    02:00 -7°C° 0 mm 2 mps 745 mmHg 73%
    03:00 -7°C° 0.1 mm 3 mps 744 mmHg 79%
    04:00 -7°C° 0.1 mm 3 mps 743 mmHg 85%
    05:00 -7°C° 0.1 mm 4 mps 742 mmHg 91%
    06:00 -7°C° 0.5 mm 4 mps 741 mmHg 92%
    07:00 -5°C° 0.5 mm 4 mps 740 mmHg 94%
    08:00 -5°C° 0.5 mm 5 mps 740 mmHg 95%
    09:00 -4°C° 0.2 mm 5 mps 739 mmHg 94%
    10:00 -3°C° 0.2 mm 4 mps 738 mmHg 93%
    11:00 -2°C° 0.2 mm 4 mps 737 mmHg 92%
    12:00 -2°C° 0.2 mm 4 mps 737 mmHg 93%
    13:00 -1°C° 0.2 mm 4 mps 737 mmHg 95%
    14:00 0°C° 0.2 mm 4 mps 736 mmHg 96%
    15:00 -1°C° 0.1 mm 4 mps 736 mmHg 92%
    16:00 -2°C° 0.1 mm 4 mps 736 mmHg 88%
    17:00 -2°C° 0.1 mm 4 mps 736 mmHg 84%
    18:00 -3°C° 0 mm 4 mps 737 mmHg 85%
    19:00 -3°C° 0 mm 4 mps 737 mmHg 87%
    20:00 -4°C° 0 mm 4 mps 738 mmHg 88%
    21:00 -4°C° 0 mm 4 mps 738 mmHg 89%
    22:00 -4°C° 0 mm 4 mps 738 mmHg 90%
    23:00 -4°C° 0 mm 4 mps 738 mmHg 91%

    25 January, Saturday

    Time Temperature Precipitation Wind Pressure Humidity
    00:00 -4°C° 0 mm 3 mps 737 mmHg 91%
    01:00 -4°C° 0 mm 3 mps 737 mmHg 92%
    02:00 -4°C° 0 mm 3 mps 737 mmHg 92%
    03:00 -2°C° 0 mm 3 mps 737 mmHg 89%
    04:00 -2°C° 0 mm 4 mps 736 mmHg 86%
    05:00 -2°C° 0 mm 4 mps 736 mmHg 83%
    06:00 -2°C° 0 mm 4 mps 736 mmHg 84%
    07:00 -3°C° 0 mm 4 mps 736 mmHg 86%
    08:00 -3°C° 0 mm 4 mps 735 mmHg 88%
    09:00 -3°C° 0 mm 4 mps 735 mmHg 86%
    10:00 -2°C° 0 mm 5 mps 734 mmHg 85%
    11:00 -2°C° 0 mm 5 mps 734 mmHg 83%
    12:00 -3°C° 0.1 mm 6 mps 733 mmHg 83%
    13:00 -3°C° 0.1 mm 6 mps 733 mmHg 82%
    14:00 -3°C° 0.1 mm 6 mps 732 mmHg 82%
    15:00 -3°C° 0.5 mm 6 mps 732 mmHg 80%
    16:00 -3°C° 0.5 mm 6 mps 733 mmHg 78%
    17:00 -4°C° 0.5 mm 6 mps 733 mmHg 76%
    18:00 -4°C° 0 mm 6 mps 734 mmHg 77%
    19:00 -5°C° 0 mm 6 mps 734 mmHg 78%
    20:00 -5°C° 0 mm 6 mps 735 mmHg 79%
    21:00 -5°C° 0 mm 6 mps 736 mmHg 80%
    22:00 -5°C° 0 mm 6 mps 736 mmHg 80%
    23:00 -6°C° 0 mm 6 mps 737 mmHg 81%

    26 January, Sunday

    Time Temperature Precipitation Wind Pressure Humidity
    00:00 -6°C° 0.1 mm 6 mps 738 mmHg 81%
    01:00 -6°C° 0.1 mm 6 mps 738 mmHg 81%
    02:00 -6°C° 0.1 mm 6 mps 739 mmHg 82%
    03:00 -6°C° 0.1 mm 5 mps 740 mmHg 83%
    04:00 -7°C° 0.1 mm 5 mps 740 mmHg 84%
    05:00 -7°C° 0.1 mm 5 mps 741 mmHg 84%
    06:00 -7°C° 0 mm 4 mps 742 mmHg 84%
    07:00 -7°C° 0 mm 4 mps 743 mmHg 84%
    08:00 -7°C° 0 mm 4 mps 744 mmHg 84%
    09:00 -7°C° 0 mm 4 mps 745 mmHg 82%
    10:00 -7°C° 0 mm 4 mps 746 mmHg 79%
    11:00 -7°C° 0 mm 4 mps 746 mmHg 76%
    12:00 -6°C° 0 mm 3 mps 747 mmHg 75%
    13:00 -6°C° 0 mm 3 mps 748 mmHg 75%
    14:00 -6°C° 0 mm 3 mps 748 mmHg 74%
    15:00 -6°C° 0 mm 2 mps 749 mmHg 79%
    16:00 -7°C° 0 mm 2 mps 749 mmHg 84%
    17:00 -6°C° 0 mm 1 mps 750 mmHg 88%
    18:00 -7°C° 0 mm 1 mps 750 mmHg 89%
    19:00 -7°C° 0 mm 0 mps 751 mmHg 89%
    20:00 -7°C° 0 mm 0 mps 751 mmHg 90%
    21:00 -8°C° 0 mm 1 mps 751 mmHg 90%
    22:00 -8°C° 0 mm 1 mps 752 mmHg 89%
    23:00 -8°C° 0 mm 1 mps 752 mmHg 89%

    27 January, Monday

    Time Temperature Precipitation Wind Pressure Humidity
    00:00 -9°C° 0 mm 2 mps 752 mmHg 88%
    01:00 -8°C° 0 mm 2 mps 752 mmHg 88%
    02:00 -9°C° 0 mm 3 mps 751 mmHg 88%
    03:00 -8°C° 0 mm 3 mps 751 mmHg 89%
    04:00 -9°C° 0 mm 4 mps 751 mmHg 90%
    05:00 -8°C° 0 mm 4 mps 750 mmHg 91%
    06:00 -7°C° 0.4 mm 4 mps 750 mmHg 92%
    07:00 -7°C° 0.4 mm 4 mps 749 mmHg 93%
    08:00 -5°C° 0.4 mm 4 mps 749 mmHg 94%
    09:00 -4°C° 0.4 mm 4 mps 748 mmHg 94%
    10:00 -4°C° 0.4 mm 4 mps 748 mmHg 94%
    11:00 -3°C° 0.4 mm 4 mps 748 mmHg 94%
    12:00 -3°C° 0.2 mm 4 mps 747 mmHg 94%
    13:00 -2°C° 0.2 mm 4 mps 747 mmHg 94%
    14:00 -2°C° 0.2 mm 4 mps 746 mmHg 94%
    15:00 -2°C° 0.1 mm 4 mps 746 mmHg 95%
    16:00 -1°C° 0.1 mm 4 mps 745 mmHg 96%
    17:00 -1°C° 0.1 mm 4 mps 745 mmHg 97%
    18:00 -1°C° 0.1 mm 4 mps 744 mmHg 97%
    19:00 -1°C° 0.1 mm 4 mps 744 mmHg 97%
    20:00 -2°C° 0.1 mm 4 mps 744 mmHg 97%
    21:00 -2°C° 0.3 mm 4 mps 743 mmHg 97%
    22:00 -2°C° 0.3 mm 4 mps 743 mmHg 97%
    23:00 -2°C° 0.3 mm 4 mps 743 mmHg 97%
    Show more